Location: Gro�sch�nbrunn
(49.5760°N, 11.8868°E)
Time: 05:07:05
(UTC+00:00)

Okean 2 Rocket - Pass Details

Date: 18 September 2020
Orbit: 616 x 642 km, 82.5° (Epoch: 20 October)

Event Time Altitude Azimuth Distance (km) Brightness Sun altitude
Rises 18:03:42 0° 160° (SSE) 2,934 6.2 -8.1°
Reaches altitude 10° 18:06:08 10° 150° (SSE) 2,027 5.3 -8.5°
Maximum altitude 18:10:03 30° 89° (E) 1,143 3.9 -9.1°
Drops below altitude 10° 18:13:58 10° 29° (NNE) 2,030 5.6 -9.7°
Sets 18:16:24 0° 19° (NNE) 2,938 6.5 -10.1°
